EJU736V LFLL-LFRS

Flight info

Callsign EJU736V
Flight time N/A
Altitude 28000
Route BELEP H38 TIS DCT VALKU DCT PECNO DCT LMG DCT MANAK
Aircraft A320/M-SDE2E3FGHIJ1RWXYZ/LB1

Departure

Time 2026-04-28 15:35
Airport Lyon Saint-Exupéry Airport (LFLL)

Arrival

Time N/A
Airport Nantes Atlantique Airport (LFRS)
Time Latitude Longitude Altitude Speed Heading
2026-04-28 15:12 45.71517 5.08177 802 ft 0 kts 15°
2026-04-28 15:27 45.71499 5.08170 802 ft 4 kts 15°
2026-04-28 15:27 45.71474 5.08161 802 ft 2 kts 15°
2026-04-28 15:27 45.71453 5.08151 802 ft 4 kts 33°
2026-04-28 15:28 45.71440 5.08127 802 ft 4 kts 99°
2026-04-28 15:28 45.71445 5.08097 802 ft 1 kts 104°
2026-04-28 15:33 45.71443 5.08106 802 ft 6 kts 104°
2026-04-28 15:33 45.71428 5.08191 802 ft 7 kts 103°
2026-04-28 15:33 45.71420 5.08237 803 ft 2 kts 103°
2026-04-28 15:34 45.71420 5.08243 803 ft 3 kts 103°
2026-04-28 15:34 45.71116 5.09025 820 ft 0 kts 355°
2026-04-28 15:34 45.71200 5.09015 818 ft 42 kts 355°
2026-04-28 15:34 45.71721 5.08953 810 ft 105 kts 355°
2026-04-28 15:35 45.72625 5.08841 792 ft 154 kts 355°
2026-04-28 15:35 45.75009 5.08526 1790 ft 175 kts 354°
2026-04-28 15:35 45.76274 5.08376 2211 ft 192 kts 354°
2026-04-28 15:36 45.77683 5.08211 2495 ft 214 kts 355°
2026-04-28 15:36 45.79232 5.08027 2861 ft 234 kts 355°
2026-04-28 15:36 45.80880 5.07830 3568 ft 240 kts 355°
2026-04-28 15:36 45.82560 5.07627 4366 ft 244 kts 355°
2026-04-28 15:37 45.84265 5.07420 5104 ft 251 kts 355°
2026-04-28 15:37 45.86069 5.07098 5613 ft 269 kts 344°
2026-04-28 15:37 45.87756 5.05897 6366 ft 275 kts 321°
2026-04-28 15:37 45.88641 5.04597 6898 ft 278 kts 305°
2026-04-28 15:38 45.89553 5.01145 7967 ft 282 kts 274°
2026-04-28 15:38 45.89313 4.98346 8736 ft 286 kts 250°
2026-04-28 15:38 45.88384 4.95815 9514 ft 289 kts 238°
2026-04-28 15:38 45.87336 4.93340 10304 ft 293 kts 238°
2026-04-28 15:39 45.86234 4.90750 10607 ft 316 kts 238°
2026-04-28 15:39 45.85060 4.87990 11120 ft 328 kts 238°
2026-04-28 15:39 45.83871 4.85176 11834 ft 331 kts 238°
2026-04-28 15:39 45.82682 4.82351 12608 ft 332 kts 238°
2026-04-28 15:40 45.81509 4.79546 13337 ft 333 kts 238°
2026-04-28 15:40 45.80320 4.76683 14042 ft 335 kts 238°
2026-04-28 15:40 45.79175 4.73764 14716 ft 338 kts 244°
2026-04-28 15:40 45.78422 4.70569 15375 ft 342 kts 256°
2026-04-28 15:41 45.78172 4.67167 16010 ft 346 kts 268°
2026-04-28 15:41 45.78253 4.63705 16639 ft 349 kts 269°
2026-04-28 15:41 45.78308 4.61397 17049 ft 350 kts 269°